Wind_Speed
34 34 35 35 35 35 36 37 38 36 35 30 32 35 36 36 36 36 36 37 37 38 39 41 41 42 44 45 46 47 48 50 51 52 54 55 56 58 60 61 63 64 66 68
36 35 36 37 36 36 37 37 37 37 35 32 35 36 37 37 37 37 38 38 39 40 41 41 42 44 45 46 47 49 50 51 53 54 55 57 58 60 62 63 65 67 68 69
36 35 38 38 33 34 36 36 37 38 36 35 36 36 37 38 38 39 39 40 40 41 42 42 43 44 46 47 49 50 52 53 55 56 57 59 60 62 64 65 67 68 69 70
38 38 40 35 33 34 35 35 36 37 36 36 36 37 37 38 39 40 40 41 41 42 42 43 44 46 47 49 50 52 53 55 56 58 59 61 62 64 66 67 68 69 70 72
40 40 40 35 33 34 36 36 34 36 36 37 37 37 37 38 39 40 41 41 42 42 43 44 46 47 49 50 52 53 55 57 58 59 61 63 64 66 67 68 69 71 73 74
40 41 40 34 33 34 36 36 34 35 36 36 37 37 37 39 40 40 41 42 42 43 45 46 48 49 51 52 53 55 57 58 59 61 63 64 65 67 68 70 71 73 75 77
39 41 39 35 35 35 36 35 35 35 35 36 37 38 39 40 40 41 42 43 44 45 47 48 49 51 52 54 55 57 58 59 61 62 64 65 67 69 70 72 74 76 77 78
39 40 38 36 36 36 36 36 36 36 36 37 37 39 39 40 41 42 43 45 46 47 48 49 50 52 53 55 57 58 59 60 61 63 65 67 69 71 73 75 77 78 79 79
39 38 37 38 38 38 37 37 37 37 37 37 38 39 40 41 41 43 44 46 47 48 50 51 52 54 55 57 58 59 60 61 63 65 67 69 71 73 75 78 79 80 81 81
39 37 38 38 39 39 38 38 38 39 39 39 40 41 42 42 44 45 46 47 48 49 50 52 53 55 57 58 59 59 61 63 65 67 69 71 73 75 78 79 80 81 81 80
38 37 38 38 38 38 39 39 40 40 41 41 42 42 43 44 45 46 47 48 49 50 52 53 55 56 57 58 59 61 63 65 67 69 71 73 75 78 79 80 81 82 81 80
37 36 37 37 37 38 40 40 41 42 43 43 43 44 44 45 46 47 48 49 50 51 53 54 55 56 58 59 61 63 65 67 70 72 74 76 78 79 80 80 80 80 80 80
38 37 38 38 38 39 40 41 42 43 43 44 44 45 45 46 47 48 49 50 51 52 53 54 56 57 59 61 63 65 68 70 72 75 77 79 80 81 80 79 77 77 77 76
39 40 40 40 40 41 42 43 43 44 44 44 45 45 46 47 48 49 50 51 52 53 54 56 57 59 61 63 65 68 70 73 75 77 79 81 81 81 81 79 76 74 73 71
39 41 41 41 41 42 43 43 44 44 44 45 46 46 47 48 49 50 51 52 52 54 56 58 59 61 63 65 68 70 73 76 78 80 81 82 81 80 79 77 76 73 69 65
40 41 41 42 42 43 43 43 43 43 44 45 46 47 48 49 49 50 51 53 54 56 58 60 61 63 65 68 71 74 76 78 80 81 82 81 80 79 77 75 73 70 65 62
40 40 41 41 42 42 42 42 43 43 44 45 47 47 48 49 50 51 53 55 56 58 60 61 63 66 68 72 74 77 78 80 81 82 81 80 78 76 74 72 68 64 61 59
40 40 40 41 41 41 42 42 43 44 45 46 46 47 48 49 51 53 54 56 58 59 62 64 66 69 72 75 77 79 80 81 82 81 79 77 75 73 71 67 64 61 58 56
39 40 40 40 41 41 42 42 43 44 45 46 47 48 49 51 52 54 56 57 59 61 64 67 69 72 75 78 79 80 82 81 80 78 77 75 72 69 66 63 60 58 55 53
39 40 40 40 41 41 42 43 43 44 45 47 48 49 50 52 54 56 57 60 62 65 67 69 72 75 77 79 80 81 81 80 78 76 74 72 68 64 61 59 57 54 52 50
39 39 40 41 41 42 43 43 44 45 46 48 49 50 52 54 56 58 60 62 65 67 70 72 75 78 79 80 81 81 79 76 74 73 70 67 63 60 57 55 53 51 49 47
38 39 40 40 41 42 43 44 45 46 48 49 51 52 54 56 58 60 63 65 67 70 72 75 78 80 80 81 80 77 74 73 71 69 65 61 58 56 53 51 49 47 46 44
39 39 40 40 41 42 43 45 46 48 49 51 53 54 56 58 61 63 65 67 70 72 75 78 80 80 79 78 75 72 71 69 66 62 58 56 54 52 49 47 46 45 44 43
39 40 40 41 42 44 45 46 48 49 51 53 55 57 59 61 63 66 68 70 72 75 78 79 78 76 75 72 70 68 66 63 59 56 53 51 50 48 46 45 44 43 43 42
41 41 42 43 44 45 47 48 50 51 53 55 57 59 62 64 65 67 70 72 74 77 77 75 73 71 69 67 65 62 59 56 53 51 49 47 46 45 44 43 43 42 41 39
42 43 44 45 46 48 49 50 52 53 55 57 59 61 63 65 67 70 72 73 75 74 72 69 67 66 64 61 59 56 53 51 49 47 46 45 44 43 42 42 41 39 38 36
44 45 46 47 49 50 51 52 53 55 57 59 61 63 65 67 69 71 72 71 71 69 66 64 63 61 58 56 53 51 49 48 46 45 44 43 42 41 40 39 37 36 34 33
Wind_Direction
257 259 261 263 264 266 269 272 275 278 278 280 277 276 277 280 281 283 285 287 287 288 289 290 291 292 294 295 296 297 298 299 300 300 301 302 303 303 304 305 305 306 306 306
258 259 262 264 266 269 270 272 275 277 278 279 276 277 278 280 282 284 286 287 288 289 290 291 292 293 295 296 297 298 299 299 300 301 302 303 303 304 305 305 306 306 306 306
260 261 263 266 270 270 270 271 274 276 279 278 277 278 279 281 283 285 286 288 289 290 291 292 293 294 295 296 297 299 299 300 300 301 302 303 304 304 305 306 306 307 307 307
261 263 264 270 270 270 270 270 273 275 278 279 280 280 281 283 284 286 287 289 289 290 291 293 293 294 296 297 298 299 300 300 301 302 303 303 304 305 306 306 307 307 307 308
262 264 268 269 272 273 271 271 273 276 278 279 281 282 283 285 287 288 289 290 291 291 292 293 294 296 297 298 299 300 300 301 302 302 303 304 305 306 306 307 307 307 308 308
263 267 270 273 272 272 273 274 275 276 278 280 282 283 284 286 287 288 289 290 291 292 293 294 296 297 298 299 299 300 301 302 302 303 304 305 306 306 307 307 308 308 309 309
264 267 269 275 276 275 275 278 277 278 280 282 284 285 286 286 287 288 289 291 292 293 294 295 297 297 298 299 300 301 302 303 303 304 305 306 306 307 307 307 308 309 309 309
265 267 270 272 274 275 277 277 278 280 282 284 285 286 286 287 289 290 291 292 293 294 295 296 297 298 299 300 301 302 303 303 304 305 306 306 307 307 308 308 309 309 309 310
265 268 270 271 273 274 275 277 279 281 283 285 285 287 288 289 290 291 292 293 294 295 296 297 299 300 300 301 302 303 304 304 305 306 306 307 307 308 308 309 309 310 310 310
265 267 269 270 272 274 276 277 279 281 284 285 287 288 289 290 291 292 293 295 296 297 298 299 300 301 301 302 303 304 304 305 306 306 307 308 308 309 310 310 310 310 310 310
266 267 268 269 271 273 276 278 280 282 285 287 287 288 289 291 293 294 295 296 297 298 299 300 301 302 302 303 304 305 306 306 307 307 308 308 309 310 310 311 311 311 311 311
266 266 267 268 270 273 275 278 280 283 285 286 287 289 291 292 294 295 296 297 298 299 300 301 302 302 303 304 305 306 307 307 308 308 309 309 309 310 311 311 311 311 311 311
264 266 267 269 271 274 276 278 280 283 284 286 288 289 291 293 294 295 297 298 299 300 301 302 303 303 304 305 306 307 308 308 309 309 310 310 310 311 311 311 311 311 311 311
263 266 268 270 272 274 276 278 281 283 285 286 288 290 291 293 294 296 297 299 300 301 302 303 304 304 305 306 307 308 309 309 310 310 310 311 311 311 311 311 311 311 311 310
263 266 269 271 272 274 277 279 281 283 285 287 289 290 292 293 295 296 298 299 300 301 302 303 304 305 306 307 308 309 310 310 310 310 311 311 311 311 311 311 312 312 311 310
265 267 269 271 273 275 277 279 281 283 285 287 289 290 292 293 295 297 298 299 301 302 303 304 305 306 307 308 309 310 310 310 311 311 312 312 311 311 311 312 312 312 312 311
265 268 270 272 274 276 277 279 281 283 285 287 289 291 293 294 296 297 299 300 301 303 304 305 306 307 308 309 309 310 310 311 311 312 312 312 312 312 312 312 312 312 311 311
267 269 271 273 274 276 278 280 282 284 286 288 290 292 294 295 297 298 299 301 302 303 304 306 307 308 309 309 310 310 311 311 312 312 312 312 312 312 312 312 312 312 311 311
267 269 271 272 275 276 278 280 282 284 286 289 291 292 294 296 297 299 300 301 302 304 305 306 307 308 309 310 310 310 311 312 312 312 312 312 312 312 311 311 311 311 311 311
267 269 271 273 275 277 279 281 284 286 288 290 292 293 295 296 298 299 301 302 303 305 306 307 307 308 309 310 310 311 311 312 312 312 313 312 312 311 311 311 311 311 311 311
269 270 272 274 276 278 281 283 285 287 289 291 292 294 296 297 299 300 302 303 304 305 306 307 308 309 309 310 310 311 311 312 312 313 313 313 312 312 312 311 311 311 311 311
271 273 274 276 278 280 282 284 286 288 290 291 293 295 297 298 300 301 303 304 305 306 306 308 308 309 310 310 311 311 312 312 313 313 313 313 313 313 313 312 312 312 312 312
273 274 275 277 279 281 283 285 287 289 291 293 294 296 298 299 301 302 303 304 305 306 307 308 309 310 310 311 312 312 313 313 314 314 313 314 314 314 314 314 313 313 313 312
273 274 276 278 280 282 285 287 289 290 292 294 295 297 298 300 301 303 304 305 306 307 308 309 310 311 312 312 313 313 313 314 314 314 315 315 315 316 315 315 314 314 313 313
273 275 277 279 282 284 286 288 289 291 293 294 296 298 299 301 302 304 305 306 307 308 310 310 311 312 313 313 314 314 315 315 315 316 316 317 317 317 317 317 316 316 315 314
274 276 278 281 283 285 287 288 290 291 293 295 297 299 300 302 303 304 306 307 308 309 310 311 312 313 313 314 315 315 315 316 316 317 318 319 319 319 319 319 319 318 318 317
276 278 280 282 284 285 287 289 291 293 295 296 298 300 301 303 304 305 307 308 309 310 311 311 312 313 314 315 315 316 316 317 317 318 318 319 320 321 321 322 322 321 321 320
Height
5738 5739 5740 5740 5741 5740 5740 5739 5738 5739 5739 5741 5738 5735 5733 5732 5731 5730 5729 5727 5725 5722 5719 5716 5713 5709 5706 5702 5697 5693 5688 5683 5678 5672 5666 5660 5654 5647 5640 5633 5625 5618 5610 5602
5730 5731 5730 5731 5733 5733 5732 5731 5730 5730 5731 5732 5728 5727 5725 5724 5723 5721 5720 5717 5715 5712 5709 5706 5703 5699 5695 5691 5686 5682 5677 5671 5665 5660 5654 5647 5640 5633 5626 5619 5611 5602 5594 5586
5722 5722 5721 5723 5727 5725 5724 5724 5723 5721 5723 5722 5720 5718 5717 5716 5714 5712 5710 5708 5705 5702 5699 5696 5692 5689 5684 5680 5675 5670 5665 5659 5653 5647 5640 5634 5627 5619 5612 5604 5596 5587 5578 5569
5712 5713 5713 5720 5718 5717 5716 5716 5714 5713 5713 5712 5711 5710 5708 5707 5705 5703 5700 5698 5695 5692 5689 5685 5682 5678 5673 5669 5663 5658 5652 5646 5640 5633 5627 5620 5612 5605 5596 5588 5580 5571 5562 5552
5704 5703 5704 5710 5710 5708 5706 5707 5707 5705 5704 5703 5701 5700 5699 5697 5695 5693 5690 5688 5685 5682 5678 5675 5671 5666 5662 5657 5651 5645 5639 5633 5626 5620 5613 5605 5598 5589 5581 5573 5564 5555 5545 5535
5695 5694 5695 5702 5701 5699 5698 5698 5699 5696 5695 5694 5693 5692 5691 5688 5685 5683 5680 5677 5674 5671 5667 5663 5659 5655 5650 5644 5638 5632 5626 5619 5612 5605 5598 5590 5582 5573 5565 5556 5547 5537 5528 5516
5687 5686 5687 5692 5691 5690 5690 5691 5689 5687 5686 5685 5684 5683 5681 5678 5675 5672 5670 5667 5663 5660 5656 5652 5647 5643 5637 5632 5626 5619 5612 5605 5598 5590 5582 5574 5566 5557 5548 5539 5530 5520 5510 5500
5678 5678 5682 5683 5681 5681 5681 5680 5679 5678 5677 5676 5674 5672 5670 5668 5665 5662 5659 5656 5652 5649 5644 5640 5635 5630 5625 5619 5613 5606 5599 5591 5584 5575 5567 5558 5550 5540 5530 5520 5511 5501 5490 5481
5671 5673 5674 5673 5672 5671 5670 5670 5669 5668 5667 5666 5664 5662 5660 5657 5654 5651 5648 5645 5641 5637 5632 5627 5622 5617 5611 5605 5598 5592 5584 5577 5569 5561 5551 5542 5532 5523 5513 5502 5491 5480 5469 5459
5662 5664 5664 5663 5662 5661 5661 5660 5659 5658 5657 5656 5654 5651 5649 5646 5643 5640 5637 5633 5629 5624 5619 5614 5609 5603 5597 5591 5584 5577 5570 5562 5554 5545 5536 5526 5515 5505 5494 5483 5471 5460 5448 5438
5652 5654 5653 5653 5652 5652 5651 5650 5649 5648 5647 5645 5643 5641 5638 5635 5632 5629 5625 5621 5616 5612 5606 5601 5595 5589 5583 5576 5569 5563 5555 5547 5538 5529 5519 5509 5499 5488 5476 5465 5450 5438 5427 5416
5643 5644 5644 5644 5643 5643 5641 5640 5639 5638 5636 5634 5632 5630 5627 5624 5620 5617 5613 5608 5604 5599 5593 5588 5581 5575 5568 5561 5554 5547 5539 5531 5521 5512 5502 5491 5481 5472 5459 5446 5434 5420 5406 5395
5633 5633 5633 5633 5633 5633 5632 5631 5629 5628 5626 5624 5621 5619 5616 5612 5608 5605 5600 5596 5591 5586 5580 5574 5568 5561 5554 5546 5539 5531 5522 5513 5504 5494 5483 5472 5461 5450 5441 5432 5418 5404 5390 5378
5622 5623 5623 5623 5623 5622 5621 5620 5619 5617 5615 5613 5610 5607 5604 5600 5596 5592 5588 5583 5578 5572 5566 5560 5554 5546 5539 5531 5523 5515 5505 5495 5485 5475 5464 5452 5441 5429 5417 5407 5399 5390 5377 5362
5612 5612 5613 5612 5612 5611 5610 5609 5607 5606 5603 5601 5598 5595 5592 5588 5584 5580 5575 5570 5565 5559 5553 5546 5539 5532 5523 5516 5507 5498 5488 5478 5467 5456 5445 5433 5421 5409 5398 5387 5376 5368 5359 5348
5602 5602 5602 5601 5601 5600 5599 5598 5596 5594 5592 5589 5586 5583 5580 5576 5572 5567 5562 5557 5551 5545 5539 5532 5524 5517 5508 5499 5490 5481 5471 5459 5447 5436 5425 5413 5401 5389 5378 5368 5358 5348 5339 5331
5591 5591 5591 5590 5590 5589 5588 5586 5584 5582 5580 5577 5574 5571 5567 5563 5559 5554 5549 5543 5537 5531 5524 5516 5509 5501 5492 5482 5473 5463 5452 5441 5429 5417 5405 5393 5382 5370 5360 5349 5340 5331 5323 5314
5580 5580 5580 5580 5579 5578 5576 5575 5573 5570 5568 5565 5562 5558 5555 5550 5546 5541 5535 5529 5523 5516 5508 5501 5493 5485 5475 5465 5454 5444 5433 5422 5410 5398 5386 5374 5363 5352 5342 5332 5323 5315 5308 5300
5569 5569 5569 5568 5567 5566 5564 5563 5561 5558 5556 5553 5549 5546 5541 5537 5532 5527 5522 5515 5509 5502 5494 5485 5477 5467 5457 5446 5435 5425 5413 5402 5391 5379 5367 5356 5346 5335 5325 5316 5308 5300 5293 5286
5558 5558 5557 5556 5555 5554 5553 5551 5549 5546 5543 5540 5537 5533 5528 5524 5519 5513 5507 5501 5493 5485 5478 5469 5460 5450 5439 5428 5417 5406 5394 5383 5371 5361 5349 5339 5329 5319 5310 5302 5294 5286 5279 5272
5547 5547 5546 5545 5544 5543 5541 5539 5536 5534 5531 5527 5524 5519 5515 5510 5504 5498 5492 5486 5478 5469 5461 5451 5441 5431 5420 5409 5398 5387 5375 5364 5353 5342 5332 5322 5312 5304 5295 5287 5280 5273 5266 5259
5535 5535 5534 5533 5532 5530 5528 5526 5524 5521 5518 5514 5510 5506 5501 5496 5490 5484 5476 5469 5462 5452 5443 5434 5423 5411 5400 5389 5379 5367 5356 5346 5335 5325 5315 5306 5297 5289 5282 5274 5267 5260 5253 5247
5524 5523 5522 5521 5520 5518 5516 5513 5511 5508 5504 5500 5496 5491 5486 5481 5474 5468 5462 5453 5444 5435 5425 5415 5403 5392 5381 5370 5360 5349 5339 5329 5319 5309 5300 5292 5284 5276 5269 5262 5255 5248 5242 5236
5512 5511 5510 5509 5507 5505 5503 5500 5497 5494 5490 5486 5481 5476 5471 5465 5459 5451 5443 5435 5426 5416 5406 5395 5384 5373 5362 5352 5342 5333 5323 5313 5304 5295 5287 5280 5272 5264 5257 5250 5243 5237 5231 5225
5500 5499 5498 5496 5495 5493 5490 5487 5484 5480 5476 5472 5467 5460 5454 5448 5441 5434 5426 5417 5408 5398 5388 5377 5366 5356 5346 5336 5327 5317 5308 5299 5291 5283 5276 5268 5261 5254 5246 5239 5232 5226 5220 5214
5487 5486 5485 5483 5482 5479 5477 5473 5470 5466 5462 5457 5452 5445 5439 5431 5424 5416 5408 5399 5389 5379 5369 5360 5350 5340 5331 5322 5313 5304 5296 5288 5280 5273 5265 5258 5251 5244 5237 5230 5223 5216 5210 5204
5474 5473 5472 5470 5468 5465 5462 5459 5455 5451 5446 5441 5436 5430 5423 5415 5408 5399 5390 5381 5372 5363 5353 5344 5335 5326 5317 5309 5301 5293 5285 5277 5270 5263 5256 5249 5242 5235 5228 5221 5215 5208 5202 5197